[[{"header":{"parameterUnit":"m.s-1","parameterCategory":1,"la1":30.2991,"la2":30.254,"lo1":-89.0895,"lo2":-89.0444,"dy":0.0017,"dx":0.0017,"nx":28,"ny":28,"refTime":"2023-09-06T21:00:00:Z","depth":0,"parameterNumber":2,"parameterNumberName":"U-component_of_WINDS"},"data":[0,0,0,0,0,0,0,0,0,0,0,0,0,0,0,0,0,0,0,0,0,0,0,0,0,0,0,0,0,0,0,0,0,0,0,0,0,0,0,0,0,0,0,0,0,0,0,0,0,0,0,0,0,0,0,0,0,0,1.8771,1.8771,0,1.8831,1.8832,1.8833,1.8856,1.8855,1.8855,1.8855,1.8916,1.8918,1.892,0,0,0,0,0,0,0,0,0,0,0,0,0,1.8673,1.8675,1.8771,1.8772,1.8772,1.8831,1.8832,1.8833,1.8856,1.8855,1.8855,1.8855,1.8916,1.8918,1.892,0,0,0,0,0,0,0,0,0,0,0,0,0,1.8723,1.8676,1.8771,1.8791,1.8793,1.8831,1.8832,1.8833,1.8856,1.8855,1.8855,1.8855,1.8915,1.8918,1.892,1.8942,0,0,1.8928,1.893,0,0,0,0,0,0,0,0,1.872,1.8727,1.8787,1.8789,1.8792,1.8836,1.882,1.887,1.8856,1.8832,1.8855,1.8855,1.889,1.8894,1.8906,1.8945,1.8948,1.8929,1.893,1.8931,1.8932,0,0,0,0,0,0,0,1.8717,1.8724,1.8795,1.8788,1.8791,1.8796,1.8803,1.883,1.8862,1.8834,1.8836,1.8843,1.8891,1.8904,1.8908,1.8949,1.8929,1.8931,1.8933,1.8934,1.9008,1.9009,0,0,0,0,0,0,1.871,1.8721,1.8793,1.8797,1.8755,1.8798,1.8806,1.8822,1.8861,1.8867,1.8843,1.8844,1.8899,1.8905,1.891,1.8939,1.8931,1.8934,1.8936,1.9008,1.9009,1.9009,0,0,0,0,0,0,1.8708,1.8716,1.879,1.8759,1.8769,1.88,1.8818,1.8823,1.8836,1.8868,1.8874,1.885,1.8899,1.8906,1.8934,1.8941,1.8935,1.8938,1.9008,1.9008,1.9009,1.8995,0,0,0,0,0,0,1.8705,1.8715,1.8724,1.8759,1.8771,1.8814,1.8819,1.8825,1.8841,1.8842,1.8876,1.8882,1.89,1.893,1.8937,1.8945,1.894,1.9007,1.9008,1.9009,1.8995,1.8995,1.8995,0,0,0,0,0,1.8701,1.8718,1.8725,1.8733,1.8783,1.8814,1.8821,1.8841,1.8841,1.885,1.8871,1.8881,1.8939,1.8933,1.8941,1.8949,1.9007,1.9008,1.9008,1.8995,1.8995,1.8995,0,0,0,0,0,0,1.8683,1.8723,1.8731,1.8759,1.8783,1.8818,1.883,1.884,1.8864,1.8865,1.8889,1.8896,1.8922,1.8938,1.8931,1.8972,1.8974,1.8976,1.8961,1.8961,1.8961,1.8957,1.8942,0,0,0,0,0,1.8682,1.8704,1.8738,1.876,1.8772,1.8799,1.8813,1.8827,1.8852,1.8862,1.8885,1.8909,1.8933,1.8948,1.8972,1.8998,1.9005,1.9008,1.9008,1.9007,1.9009,1.9024,1.9025,1.9012,1.9012,1.9012,0,0,1.8681,1.8705,1.8718,1.8757,1.8777,1.8799,1.8807,1.883,1.8847,1.8866,1.8894,1.8911,1.8939,1.8966,1.8979,1.8981,1.9015,1.9009,1.9008,1.901,1.9025,1.9026,1.9027,1.9012,1.9012,1.9012,0,0,1.8689,1.8711,1.8731,1.8751,1.8781,1.8799,1.8804,1.8837,1.8849,1.8878,1.8892,1.8912,1.8953,1.8972,1.8987,1.9003,1.9013,1.901,1.901,1.9025,1.9026,1.9027,1.9032,1.9034,1.9012,1.9012,1.9012,0,1.8684,1.8718,1.874,1.8763,1.8779,1.8797,1.8818,1.8836,1.8872,1.8883,1.8884,1.8936,1.8956,1.8988,1.8991,1.9003,1.9009,1.9006,1.9024,1.9025,1.9026,1.9032,1.9034,1.9011,1.9011,1.9011,1.9011,0,1.871,1.8733,1.8746,1.8781,1.8799,1.8821,1.8845,1.8861,1.8873,1.889,1.8918,1.8943,1.8972,1.8981,1.8993,1.9014,1.9014,1.9019,1.9021,1.9027,1.9032,1.9035,1.901,1.9011,1.9011,1.9011,0,0,1.8709,1.8755,1.876,1.8776,1.881,1.8829,1.8851,1.8879,1.8892,1.8916,1.8935,1.8969,1.8974,1.8991,1.9005,1.9017,1.9028,1.9021,1.9022,1.9021,1.9053,1.9049,1.9051,1.9035,1.9035,1.9036,1.905,0,1.8722,1.8763,1.8783,1.8815,1.8837,1.8854,1.8873,1.8896,1.8913,1.8934,1.8952,1.8976,1.898,1.8991,1.9004,1.9024,1.9035,1.9023,1.9052,1.9053,1.9044,1.9054,1.905,1.9063,1.9053,1.9053,1.9053,0,1.8743,1.8768,1.8802,1.8834,1.8844,1.886,1.8888,1.8908,1.8934,1.8945,1.8964,1.8978,1.9001,1.9001,1.9034,1.9025,1.9038,1.905,1.9051,1.9054,1.9053,1.9057,1.9067,1.9069,1.9057,1.9057,1.9057,0,1.8739,1.878,1.8806,1.8819,1.8857,1.8868,1.8884,1.891,1.8926,1.895,1.8961,1.8987,1.9001,1.9021,1.9041,1.9039,1.9071,1.9073,1.9081,1.9081,1.9087,1.9086,1.9099,1.9095,1.9095,1.9095,1.9095,0,1.8752,1.8772,1.8805,1.882,1.8843,1.8866,1.8888,1.8905,1.8928,1.8947,1.8963,1.8981,1.9007,1.9027,1.9043,1.9067,1.9074,1.9083,1.9087,1.9082,1.9081,1.9091,1.909,1.9096,1.9096,1.9096,1.9096,0,1.8751,1.8774,1.8803,1.8836,1.8845,1.886,1.8889,1.8904,1.8922,1.8946,1.8953,1.898,1.9005,1.9027,1.906,1.9071,1.9096,1.9101,1.9087,1.9089,1.9096,1.9095,1.9116,1.9119,1.9113,1.9113,1.9113,0,1.8758,1.8774,1.8809,1.8823,1.8839,1.8861,1.8878,1.89,1.8916,1.8947,1.8959,1.8985,1.9007,1.9046,1.9069,1.9094,1.91,1.9106,1.9104,1.9098,1.91,1.9099,1.91,1.9105,1.9105,1.9105,1.9105,0,1.8767,1.8778,1.8801,1.8827,1.8846,1.8868,1.8891,1.8901,1.8928,1.8945,1.8971,1.8988,1.9022,1.9048,1.9075,1.9092,1.9103,1.9106,1.9109,1.9103,1.9095,1.9099,1.9087,1.9105,1.9105,1.9105,1.9105,1.9105,1.8771,1.8785,1.8812,1.8837,1.8856,1.8877,1.8893,1.8913,1.8935,1.8964,1.8976,1.9002,1.9028,1.9066,1.9082,1.9103,1.9105,1.911,1.9111,1.9112,1.9111,1.9091,1.9108,1.9108,1.9108,1.9108,1.9108,0,1.8781,1.8799,1.8821,1.8852,1.8872,1.8881,1.8906,1.8921,1.8945,1.8967,1.8989,1.9018,1.9043,1.9068,1.9094,1.9106,1.9111,1.9112,1.9111,1.9115,1.9107,1.9102,1.9107,1.9107,1.9107,1.9107,1.9107,1.9107,1.8788,1.8814,1.8827,1.8862,1.888,1.8906,1.892,1.8939,1.8957,1.8989,1.901,1.9026,1.905,1.9077,1.9101,1.9107,1.9116,1.9115,1.9123,1.9115,1.9115,1.9115,1.911,1.9117,1.9117,1.9128,1.9128,1.9128]},{"header":{"parameterUnit":"m.s-1","parameterCategory":1,"la1":30.2991,"la2":30.254,"lo1":-89.0895,"lo2":-89.0444,"dy":0.0017,"dx":0.0017,"nx":28,"ny":28,"refTime":"2023-09-06T21:00:00:Z","depth":0,"parameterNumber":3,"parameterNumberName":"V-component_of_WINDS"},"data":[0,0,0,0,0,0,0,0,0,0,0,0,0,0,0,0,0,0,0,0,0,0,0,0,0,0,0,0,0,0,0,0,0,0,0,0,0,0,0,0,0,0,0,0,0,0,0,0,0,0,0,0,0,0,0,0,0,0,1.2989,1.2989,0,1.2974,1.2974,1.2974,1.2961,1.2961,1.296,1.296,1.2945,1.2945,1.2945,0,0,0,0,0,0,0,0,0,0,0,0,0,1.3005,1.3005,1.2989,1.2989,1.2988,1.2974,1.2974,1.2974,1.2961,1.2961,1.296,1.296,1.2945,1.2945,1.2945,0,0,0,0,0,0,0,0,0,0,0,0,0,1.2995,1.3005,1.2989,1.298,1.2979,1.2974,1.2974,1.2974,1.2961,1.2961,1.296,1.296,1.2946,1.2945,1.2945,1.2947,0,0,1.2944,1.2944,0,0,0,0,0,0,0,0,1.2996,1.2994,1.2982,1.2981,1.298,1.2969,1.2974,1.2965,1.2961,1.2968,1.296,1.296,1.2953,1.2952,1.295,1.2947,1.2946,1.2944,1.2943,1.2943,1.2943,0,0,0,0,0,0,0,1.2996,1.2995,1.2983,1.2981,1.298,1.2977,1.2975,1.2972,1.2962,1.2967,1.2966,1.2965,1.2953,1.2951,1.295,1.2946,1.2944,1.2943,1.2943,1.2943,1.2943,1.2943,0,0,0,0,0,0,1.2998,1.2996,1.2983,1.2982,1.2987,1.2977,1.2975,1.2973,1.2962,1.296,1.2965,1.2964,1.2951,1.295,1.2949,1.2951,1.2943,1.2943,1.2943,1.2943,1.2943,1.2943,0,0,0,0,0,0,1.2999,1.2997,1.2984,1.2989,1.2987,1.2977,1.2974,1.2972,1.297,1.296,1.2958,1.2964,1.2951,1.295,1.2948,1.295,1.2943,1.2942,1.2943,1.2943,1.2943,1.2955,0,0,0,0,0,0,1.2999,1.2998,1.2998,1.2989,1.2987,1.2983,1.2975,1.2972,1.297,1.2968,1.2959,1.2958,1.2951,1.2948,1.2947,1.295,1.2942,1.2942,1.2943,1.2943,1.2954,1.2956,1.2957,0,0,0,0,0,1.3,1.3002,1.2998,1.2997,1.2987,1.2983,1.2982,1.2974,1.297,1.297,1.2964,1.2958,1.295,1.2948,1.2947,1.2949,1.2942,1.2943,1.2943,1.2954,1.2955,1.2957,0,0,0,0,0,0,1.3012,1.3001,1.2997,1.2996,1.2991,1.2981,1.2981,1.2976,1.2971,1.297,1.2961,1.2959,1.2958,1.2953,1.2951,1.2951,1.2945,1.2946,1.2954,1.2955,1.2957,1.2957,1.2942,0,0,0,0,0,1.3015,1.3012,1.3003,1.3003,1.3,1.2991,1.2989,1.2984,1.2978,1.2975,1.2969,1.2963,1.2959,1.2957,1.2953,1.2954,1.2951,1.2955,1.2956,1.2957,1.2957,1.2957,1.2958,1.2945,1.2945,1.2945,0,0,1.302,1.3014,1.3013,1.3005,1.3,1.2998,1.299,1.2987,1.2985,1.2975,1.2972,1.2968,1.2961,1.296,1.2959,1.2956,1.296,1.2958,1.2959,1.2958,1.2957,1.2959,1.296,1.2945,1.2945,1.2945,0,0,1.3029,1.3024,1.3023,1.3019,1.3012,1.3006,1.3006,1.2997,1.2993,1.2991,1.2983,1.298,1.2974,1.2969,1.2966,1.2973,1.2967,1.2972,1.2979,1.2979,1.298,1.298,1.2983,1.2983,1.2973,1.2973,1.2973,0,1.3036,1.3032,1.3024,1.3022,1.3019,1.301,1.3009,1.3005,1.2997,1.2995,1.2992,1.2984,1.2978,1.2976,1.2978,1.2976,1.2975,1.2973,1.298,1.2981,1.2981,1.2983,1.2984,1.2973,1.2973,1.2973,1.2973,0,1.3042,1.3039,1.304,1.3032,1.3029,1.3028,1.3019,1.3017,1.3012,1.3007,1.3004,1.2998,1.2992,1.2991,1.2986,1.2988,1.2987,1.2982,1.2976,1.2983,1.2985,1.2986,1.2974,1.2974,1.2974,1.2974,0,0,1.3057,1.3045,1.3046,1.3042,1.3033,1.3031,1.303,1.3024,1.3022,1.3017,1.3016,1.3011,1.3006,1.3003,1.2997,1.2997,1.3002,1.2992,1.2992,1.2994,1.3004,1.3007,1.3008,1.2999,1.2999,1.2999,1.3005,0,1.3064,1.3061,1.3053,1.3052,1.3049,1.304,1.3039,1.3034,1.3029,1.3025,1.302,1.3016,1.3011,1.3009,1.3008,1.3002,1.3004,1.3001,1.2997,1.2997,1.2998,1.3009,1.3013,1.3018,1.3005,1.3005,1.3005,0,1.3071,1.3067,1.3065,1.3057,1.3055,1.3054,1.3049,1.3046,1.304,1.3036,1.3032,1.3026,1.3023,1.3018,1.3015,1.3013,1.3011,1.3008,1.3008,1.3007,1.3001,1.3008,1.302,1.3021,1.3006,1.3006,1.3006,0,1.3082,1.3076,1.3074,1.3071,1.3061,1.3061,1.3057,1.305,1.3047,1.3042,1.3041,1.3036,1.3033,1.3029,1.3022,1.3019,1.3019,1.3014,1.3016,1.3016,1.3016,1.3016,1.3027,1.3015,1.3015,1.3015,1.3015,0,1.309,1.3089,1.3078,1.3077,1.3076,1.3068,1.3067,1.3062,1.3057,1.3054,1.3047,1.3045,1.3035,1.3032,1.3027,1.3025,1.3024,1.302,1.3019,1.3021,1.3021,1.3019,1.3018,1.3016,1.3015,1.3015,1.3015,0,1.3102,1.3094,1.3092,1.3083,1.3081,1.308,1.3073,1.3071,1.3066,1.3063,1.3062,1.3053,1.3049,1.3041,1.3035,1.3031,1.3031,1.3028,1.3033,1.3032,1.3034,1.3034,1.3044,1.3045,1.3033,1.3033,1.3033,0,1.3107,1.3106,1.3097,1.3095,1.3092,1.3088,1.3085,1.3077,1.3075,1.3068,1.3067,1.3062,1.3058,1.3052,1.3045,1.3041,1.3038,1.3042,1.3037,1.3039,1.3037,1.3037,1.3037,1.3042,1.3043,1.3043,1.3043,0,1.3117,1.3114,1.311,1.3105,1.3102,1.3097,1.3092,1.3091,1.3082,1.3079,1.3075,1.3072,1.3066,1.3061,1.3056,1.3051,1.3045,1.3045,1.3045,1.3047,1.3049,1.3047,1.3035,1.3044,1.3044,1.3044,1.3044,1.3044,1.3125,1.3124,1.3118,1.3114,1.3109,1.3105,1.3103,1.3098,1.3094,1.3088,1.3084,1.308,1.3074,1.3066,1.3062,1.3059,1.3056,1.3056,1.3056,1.3056,1.3057,1.305,1.3058,1.3057,1.3057,1.3057,1.3057,0,1.3135,1.313,1.3127,1.312,1.3117,1.3112,1.3107,1.3104,1.3101,1.3096,1.3092,1.3087,1.3083,1.3076,1.3071,1.3069,1.3067,1.3068,1.3068,1.3067,1.306,1.306,1.3071,1.3071,1.3071,1.3071,1.3071,1.3071,1.3139,1.3137,1.3133,1.3128,1.3124,1.312,1.3117,1.3113,1.3109,1.3104,1.31,1.3096,1.309,1.3084,1.308,1.3078,1.3076,1.3079,1.3076,1.3069,1.3068,1.3067,1.3067,1.3079,1.3079,1.3084,1.3084,1.3084]}]]